Total_Precipitation_Accumulation
1.49 1.54 1.55 1.41 1.31 1.26 1.31 1.51 1.80 1.58 1.01 0.76 0.77 0.83 0.91 1.02 1.22 1.12 1.05 1.13 1.20 1.29 1.39 1.44 1.51 1.64 1.92 2.51 3.46 4.78 5.41 4.71 3.79 3.50 3.51 3.73 4.07 4.51
1.36 1.46 1.52 1.45 1.36 1.30 1.35 1.38 1.50 1.68 1.38 0.82 0.75 0.79 0.91 0.97 1.10 1.02 1.04 1.22 1.21 1.25 1.31 1.36 1.42 1.50 1.64 1.92 2.43 3.27 4.45 5.11 4.71 4.06 3.74 3.86 4.05 4.28
1.29 1.33 1.36 1.38 1.40 1.33 1.33 1.35 1.32 1.38 1.38 0.87 0.71 0.75 0.93 1.02 1.02 0.97 1.01 1.06 1.09 1.21 1.25 1.28 1.34 1.43 1.61 1.80 2.06 2.51 3.17 4.12 4.78 4.66 4.25 4.04 3.97 4.00
1.24 1.23 1.23 1.27 1.35 1.29 1.25 1.22 1.17 1.12 1.18 1.00 0.75 0.74 0.82 0.91 1.02 1.11 1.10 1.08 1.02 1.13 1.17 1.26 1.39 1.43 1.52 1.71 1.94 2.23 2.59 3.10 3.79 4.32 4.37 4.14 3.92 3.90
1.21 1.22 1.18 1.24 1.31 1.26 1.24 1.18 1.08 1.01 1.01 1.02 0.84 0.75 0.80 0.85 1.03 1.20 1.22 1.22 1.15 1.17 1.19 1.25 1.36 1.45 1.51 1.62 1.84 2.06 2.23 2.41 2.79 3.51 4.06 4.01 3.87 3.78
1.13 1.11 1.13 1.24 1.28 1.31 1.34 1.24 1.16 1.16 1.16 1.19 1.04 0.90 0.92 0.95 1.14 1.39 1.48 1.44 1.38 1.23 1.26 1.30 1.41 1.53 1.54 1.52 1.58 1.70 1.83 2.12 2.43 2.83 3.44 3.81 3.69 3.64
1.08 1.07 1.13 1.27 1.33 1.50 1.63 1.51 1.47 1.56 1.52 1.50 1.38 1.27 1.20 1.25 1.34 1.39 1.55 1.57 1.56 1.41 1.30 1.23 1.26 1.28 1.36 1.46 1.51 1.57 1.67 1.83 2.10 2.41 2.80 3.26 3.55 3.62
1.11 1.07 1.07 1.20 1.23 1.35 1.55 1.64 1.70 1.81 1.88 1.84 1.75 1.60 1.35 1.27 1.32 1.46 1.55 1.73 1.80 1.49 1.42 1.36 1.31 1.40 1.34 1.35 1.55 1.56 1.61 1.75 1.92 2.15 2.43 2.72 3.09 3.49
1.09 1.08 1.08 1.13 1.20 1.18 1.29 1.35 1.39 1.55 1.78 1.89 1.94 1.56 1.34 1.29 1.51 1.71 1.67 1.75 1.72 1.62 1.75 1.70 1.41 1.44 1.38 1.48 1.68 1.58 1.55 1.63 1.76 1.91 2.12 2.35 2.61 2.95
1.07 1.06 1.06 1.08 1.18 1.38 1.34 1.29 1.19 1.21 1.42 1.62 1.88 1.71 1.53 1.56 1.89 2.21 2.28 2.16 1.78 1.58 1.76 1.96 1.53 1.42 1.46 1.55 1.71 1.62 1.51 1.51 1.60 1.75 1.90 2.06 2.26 2.52
1.06 1.03 1.04 1.05 1.29 1.56 1.48 1.33 1.15 1.06 1.17 1.50 1.81 1.95 2.00 2.12 2.34 2.66 2.82 2.64 2.19 1.67 1.65 1.91 1.72 1.53 1.67 1.85 1.90 1.79 1.54 1.48 1.53 1.64 1.71 1.76 1.95 2.24
1.10 1.05 1.17 1.26 1.44 1.57 1.44 1.40 1.48 1.26 1.11 1.16 1.25 1.36 1.45 1.62 2.01 2.30 2.60 2.68 2.33 2.10 1.75 1.85 1.98 1.97 2.23 2.09 1.94 1.74 1.55 1.49 1.50 1.55 1.58 1.58 1.70 1.74
1.14 1.10 1.08 1.32 1.42 1.50 1.52 1.47 1.70 1.59 1.34 1.34 1.29 1.24 1.22 1.34 1.54 1.85 2.25 2.58 2.60 2.29 1.89 2.16 2.46 2.26 2.33 2.18 2.05 1.96 1.63 1.41 1.37 1.46 1.56 1.59 1.63 1.61
1.08 0.98 1.04 1.27 1.36 1.47 1.46 1.54 1.66 1.59 1.40 1.35 1.26 1.20 1.21 1.27 1.36 1.52 1.84 2.10 2.22 2.09 1.80 2.15 2.74 2.51 2.37 2.08 2.00 2.10 1.87 1.57 1.38 1.34 1.38 1.65 1.65 1.58
1.08 1.17 1.24 1.34 1.36 1.29 1.35 1.44 1.42 1.35 1.43 1.43 1.27 1.17 1.19 1.31 1.37 1.41 1.55 1.82 1.98 1.93 1.87 1.96 2.38 2.50 2.51 2.29 1.94 1.95 2.03 1.90 1.58 1.46 1.42 1.45 1.40 1.34
1.26 1.31 1.38 1.36 1.27 1.18 1.21 1.22 1.17 1.26 1.41 1.41 1.27 1.14 1.12 1.23 1.37 1.46 1.56 1.70 1.91 1.92 1.89 1.97 2.25 2.64 2.63 2.15 1.96 1.92 1.82 1.99 1.84 1.63 1.49 1.43 1.30 1.15
1.44 1.50 1.43 1.34 1.30 1.18 1.08 1.03 1.06 1.22 1.34 1.25 1.22 1.20 1.17 1.19 1.25 1.36 1.58 1.72 1.86 1.88 1.94 2.08 2.25 2.48 2.58 2.49 2.33 1.96 1.71 1.65 1.70 1.67 1.61 1.61 1.52 1.29
1.61 1.53 1.32 1.17 1.13 1.09 1.07 1.04 1.00 1.03 1.09 1.17 1.21 1.21 1.20 1.22 1.24 1.25 1.41 1.65 1.79 1.81 1.87 2.00 2.19 2.43 2.61 2.72 2.56 2.15 1.79 1.64 1.69 1.74 1.69 1.76 1.80 1.56
1.49 1.27 1.10 1.04 1.01 0.99 0.98 0.97 0.94 0.88 0.93 1.03 1.08 1.12 1.17 1.20 1.23 1.24 1.29 1.44 1.61 1.74 1.84 1.95 2.11 2.35 2.52 2.63 2.70 2.37 2.07 1.79 1.75 1.93 1.94 1.84 1.83 1.69
1.24 1.14 1.05 0.98 0.96 0.99 1.00 0.99 0.95 0.91 0.93 0.96 0.99 1.00 1.09 1.19 1.21 1.19 1.22 1.35 1.50 1.62 1.72 1.83 2.04 2.32 2.55 2.48 2.55 2.54 2.44 2.12 1.91 2.04 2.10 1.99 1.88 1.84
1.11 1.09 1.05 1.02 1.01 1.01 1.03 1.03 1.02 0.99 0.95 0.95 0.95 0.95 0.97 1.07 1.11 1.07 1.10 1.24 1.40 1.52 1.61 1.62 1.76 2.05 2.30 2.32 2.25 2.23 2.42 2.47 2.15 2.11 2.18 2.21 2.16 2.08
1.02 1.07 1.06 1.06 1.06 1.06 1.07 1.07 1.06 1.00 0.95 0.95 0.91 0.90 0.91 0.97 1.01 1.02 1.08 1.15 1.21 1.33 1.46 1.51 1.61 1.88 2.20 2.40 2.31 2.15 2.23 2.41 2.44 2.27 2.22 2.29 2.47 2.54
1.13 1.10 1.08 1.08 1.07 1.09 1.09 1.07 1.03 0.96 0.90 0.89 0.89 0.88 0.90 0.94 0.93 0.97 1.02 1.08 1.15 1.21 1.31 1.46 1.58 1.76 2.02 2.23 2.33 2.23 2.12 2.17 2.29 2.33 2.48 2.33 1.97 1.80